owner,sensor,date,latitude,longitude,vertical_datum,sea_water_temperature,qcFlag 
TABS,ioos:station:wmo:42043:1,2002-12-01T00:00:00Z,28.9818,-94.9186,-2.0,18.41,11111222 
TABS,ioos:station:wmo:42043:1,2002-12-01T01:00:00Z,28.9818,-94.9186,-2.0,18.37,11111222 
TABS,ioos:station:wmo:42043:1,2002-12-01T01:30:00Z,28.9818,-94.9186,-2.0,18.37,11111222 
TABS,ioos:station:wmo:42043:1,2002-12-01T02:00:00Z,28.9818,-94.9186,-2.0,18.35,11111222 
TABS,ioos:station:wmo:42043:1,2002-12-01T02:30:00Z,28.9818,-94.9186,-2.0,18.33,11111222 
TABS,ioos:station:wmo:42043:1,2002-12-01T03:00:00Z,28.9818,-94.9186,-2.0,18.32,11111222 
TABS,ioos:station:wmo:42043:1,2002-12-01T04:00:00Z,28.9818,-94.9186,-2.0,18.28,11111222 
TABS,ioos:station:wmo:42043:1,2002-12-01T04:30:00Z,28.9818,-94.9186,-2.0,18.27,11111222 
TABS,ioos:station:wmo:42043:1,2002-12-01T05:00:00Z,28.9818,-94.9186,-2.0,18.27,11111222 
TABS,ioos:station:wmo:42043:1,2002-12-01T05:30:00Z,28.9818,-94.9186,-2.0,18.26,11111222 
TABS,ioos:station:wmo:42043:1,2002-12-01T06:00:00Z,28.9818,-94.9186,-2.0,18.27,11111222 
TABS,ioos:station:wmo:42043:1,2002-12-01T06:30:00Z,28.9818,-94.9186,-2.0,18.29,11111222 
TABS,ioos:station:wmo:42043:1,2002-12-01T07:00:00Z,28.9818,-94.9186,-2.0,18.32,11111222 
TABS,ioos:station:wmo:42043:1,2002-12-01T07:30:00Z,28.9818,-94.9186,-2.0,18.32,11111222 
TABS,ioos:station:wmo:42043:1,2002-12-01T08:00:00Z,28.9818,-94.9186,-2.0,18.33,11111222 
TABS,ioos:station:wmo:42043:1,2002-12-01T08:30:00Z,28.9818,-94.9186,-2.0,18.31,11111222 
TABS,ioos:station:wmo:42043:1,2002-12-01T09:00:00Z,28.9818,-94.9186,-2.0,18.28,11111222 
TABS,ioos:station:wmo:42043:1,2002-12-01T09:30:00Z,28.9818,-94.9186,-2.0,18.25,11111222 
TABS,ioos:station:wmo:42043:1,2002-12-01T10:00:00Z,28.9818,-94.9186,-2.0,18.14,11111222 
TABS,ioos:station:wmo:42043:1,2002-12-01T10:30:00Z,28.9818,-94.9186,-2.0,18.11,11111222 
TABS,ioos:station:wmo:42043:1,2002-12-01T11:00:00Z,28.9818,-94.9186,-2.0,18.08,11111222 
TABS,ioos:station:wmo:42043:1,2002-12-01T11:30:00Z,28.9818,-94.9186,-2.0,18.07,11111222 
TABS,ioos:station:wmo:42043:1,2002-12-01T12:00:00Z,28.9818,-94.9186,-2.0,18.02,11111222 
TABS,ioos:station:wmo:42043:1,2002-12-01T13:00:00Z,28.9818,-94.9186,-2.0,17.98,11111222 
TABS,ioos:station:wmo:42043:1,2002-12-01T13:30:00Z,28.9818,-94.9186,-2.0,17.99,11111222 
TABS,ioos:station:wmo:42043:1,2002-12-01T14:00:00Z,28.9818,-94.9186,-2.0,18.0,11111222 
TABS,ioos:station:wmo:42043:1,2002-12-01T14:30:00Z,28.9818,-94.9186,-2.0,17.98,11111222 
TABS,ioos:station:wmo:42043:1,2002-12-01T15:00:00Z,28.9818,-94.9186,-2.0,17.99,11111222 
TABS,ioos:station:wmo:42043:1,2002-12-01T15:30:00Z,28.9818,-94.9186,-2.0,18.01,11111222 
TABS,ioos:station:wmo:42043:1,2002-12-01T16:00:00Z,28.9818,-94.9186,-2.0,18.03,11111222 
TABS,ioos:station:wmo:42043:1,2002-12-01T16:30:00Z,28.9818,-94.9186,-2.0,18.02,11111222 
TABS,ioos:station:wmo:42043:1,2002-12-01T17:00:00Z,28.9818,-94.9186,-2.0,18.05,11111222 
TABS,ioos:station:wmo:42043:1,2002-12-01T17:30:00Z,28.9818,-94.9186,-2.0,18.05,11111222 
TABS,ioos:station:wmo:42043:1,2002-12-01T18:00:00Z,28.9818,-94.9186,-2.0,18.06,11111222 
TABS,ioos:station:wmo:42043:1,2002-12-01T18:30:00Z,28.9818,-94.9186,-2.0,18.04,11111222 
TABS,ioos:station:wmo:42043:1,2002-12-01T19:00:00Z,28.9818,-94.9186,-2.0,18.06,11111222 
TABS,ioos:station:wmo:42043:1,2002-12-01T19:30:00Z,28.9818,-94.9186,-2.0,18.08,11111222 
TABS,ioos:station:wmo:42043:1,2002-12-01T20:30:00Z,28.9818,-94.9186,-2.0,18.05,11111222 
TABS,ioos:station:wmo:42043:1,2002-12-01T21:00:00Z,28.9818,-94.9186,-2.0,18.07,11111222 
TABS,ioos:station:wmo:42043:1,2002-12-01T22:00:00Z,28.9818,-94.9186,-2.0,18.02,11111222 
TABS,ioos:station:wmo:42043:1,2002-12-01T22:30:00Z,28.9818,-94.9186,-2.0,18.02,11111222 
TABS,ioos:station:wmo:42043:1,2002-12-01T23:00:00Z,28.9818,-94.9186,-2.0,18.0,11111222 
TABS,ioos:station:wmo:42043:1,2002-12-01T23:30:00Z,28.9818,-94.9186,-2.0,17.98,11111222 
TABS,ioos:station:wmo:42043:1,2002-12-02T00:00:00Z,28.9818,-94.9186,-2.0,17.97,11111222 
TABS,ioos:station:wmo:42043:1,2002-12-02T01:00:00Z,28.9818,-94.9186,-2.0,17.97,11111222 
TABS,ioos:station:wmo:42043:1,2002-12-02T01:30:00Z,28.9818,-94.9186,-2.0,17.96,11111222 
TABS,ioos:station:wmo:42043:1,2002-12-02T02:00:00Z,28.9818,-94.9186,-2.0,17.95,11111222 
TABS,ioos:station:wmo:42043:1,2002-12-02T02:30:00Z,28.9818,-94.9186,-2.0,17.95,11111222 
TABS,ioos:station:wmo:42043:1,2002-12-02T03:00:00Z,28.9818,-94.9186,-2.0,17.94,11111222 
TABS,ioos:station:wmo:42043:1,2002-12-02T04:00:00Z,28.9818,-94.9186,-2.0,17.91,11111222 
TABS,ioos:station:wmo:42043:1,2002-12-02T04:30:00Z,28.9818,-94.9186,-2.0,17.91,11111222 
TABS,ioos:station:wmo:42043:1,2002-12-02T05:00:00Z,28.9818,-94.9186,-2.0,17.89,11111222 
TABS,ioos:station:wmo:42043:1,2002-12-02T05:30:00Z,28.9818,-94.9186,-2.0,17.87,11111222 
TABS,ioos:station:wmo:42043:1,2002-12-02T06:00:00Z,28.9818,-94.9186,-2.0,17.87,11111222 
TABS,ioos:station:wmo:42043:1,2002-12-02T07:00:00Z,28.9818,-94.9186,-2.0,17.81,11111222 
TABS,ioos:station:wmo:42043:1,2002-12-02T07:30:00Z,28.9818,-94.9186,-2.0,17.83,11111222 
TABS,ioos:station:wmo:42043:1,2002-12-02T08:00:00Z,28.9818,-94.9186,-2.0,17.8,11111222 
TABS,ioos:station:wmo:42043:1,2002-12-02T08:30:00Z,28.9818,-94.9186,-2.0,17.79,11111222 
TABS,ioos:station:wmo:42043:1,2002-12-02T09:00:00Z,28.9818,-94.9186,-2.0,17.79,11111222 
TABS,ioos:station:wmo:42043:1,2002-12-02T13:30:00Z,28.9818,-94.9186,-2.0,17.97,11111222 
TABS,ioos:station:wmo:42043:1,2002-12-02T14:00:00Z,28.9818,-94.9186,-2.0,17.98,11111222 
TABS,ioos:station:wmo:42043:1,2002-12-02T14:30:00Z,28.9818,-94.9186,-2.0,17.98,11111222 
TABS,ioos:station:wmo:42043:1,2002-12-02T15:00:00Z,28.9818,-94.9186,-2.0,17.98,11111222 
TABS,ioos:station:wmo:42043:1,2002-12-02T16:00:00Z,28.9818,-94.9186,-2.0,17.97,11111222 
TABS,ioos:station:wmo:42043:1,2002-12-02T16:30:00Z,28.9818,-94.9186,-2.0,17.97,11111222 
TABS,ioos:station:wmo:42043:1,2002-12-02T17:00:00Z,28.9818,-94.9186,-2.0,17.99,11111222 
TABS,ioos:station:wmo:42043:1,2002-12-02T18:00:00Z,28.9818,-94.9186,-2.0,17.98,11111222 
TABS,ioos:station:wmo:42043:1,2002-12-02T18:30:00Z,28.9818,-94.9186,-2.0,18.14,11111222 
TABS,ioos:station:wmo:42043:1,2002-12-02T19:00:00Z,28.9818,-94.9186,-2.0,18.15,11111222 
TABS,ioos:station:wmo:42043:1,2002-12-02T19:30:00Z,28.9818,-94.9186,-2.0,18.02,11111222 
TABS,ioos:station:wmo:42043:1,2002-12-02T20:00:00Z,28.9818,-94.9186,-2.0,18.01,11111222 
TABS,ioos:station:wmo:42043:1,2002-12-02T20:30:00Z,28.9818,-94.9186,-2.0,17.91,11111222 
TABS,ioos:station:wmo:42043:1,2002-12-02T21:00:00Z,28.9818,-94.9186,-2.0,17.94,11111222 
TABS,ioos:station:wmo:42043:1,2002-12-02T22:00:00Z,28.9818,-94.9186,-2.0,17.9,11111222 
TABS,ioos:station:wmo:42043:1,2002-12-02T22:30:00Z,28.9818,-94.9186,-2.0,17.97,11111222 
TABS,ioos:station:wmo:42043:1,2002-12-02T23:00:00Z,28.9818,-94.9186,-2.0,17.92,11111222 
TABS,ioos:station:wmo:42043:1,2002-12-02T23:30:00Z,28.9818,-94.9186,-2.0,17.96,11111222 
TABS,ioos:station:wmo:42043:1,2002-12-03T00:00:00Z,28.9818,-94.9186,-2.0,17.97,11111222 
TABS,ioos:station:wmo:42043:1,2002-12-03T01:00:00Z,28.9818,-94.9186,-2.0,18.28,11111222 
TABS,ioos:station:wmo:42043:1,2002-12-03T01:30:00Z,28.9818,-94.9186,-2.0,18.17,11111222 
TABS,ioos:station:wmo:42043:1,2002-12-03T02:00:00Z,28.9818,-94.9186,-2.0,17.94,11111222 
TABS,ioos:station:wmo:42043:1,2002-12-03T02:30:00Z,28.9818,-94.9186,-2.0,17.98,11111222 
TABS,ioos:station:wmo:42043:1,2002-12-03T03:00:00Z,28.9818,-94.9186,-2.0,17.97,11111222 
TABS,ioos:station:wmo:42043:1,2002-12-03T04:00:00Z,28.9818,-94.9186,-2.0,17.94,11111222 
TABS,ioos:station:wmo:42043:1,2002-12-03T04:30:00Z,28.9818,-94.9186,-2.0,17.95,11111222 
TABS,ioos:station:wmo:42043:1,2002-12-03T05:00:00Z,28.9818,-94.9186,-2.0,17.95,11111222 
TABS,ioos:station:wmo:42043:1,2002-12-03T05:30:00Z,28.9818,-94.9186,-2.0,17.95,11111222 
TABS,ioos:station:wmo:42043:1,2002-12-03T06:00:00Z,28.9818,-94.9186,-2.0,17.9,11111222 
TABS,ioos:station:wmo:42043:1,2002-12-03T07:00:00Z,28.9818,-94.9186,-2.0,17.91,11111222 
TABS,ioos:station:wmo:42043:1,2002-12-03T14:30:00Z,28.9818,-94.9186,-2.0,17.7,11111222 
TABS,ioos:station:wmo:42043:1,2002-12-03T15:00:00Z,28.9818,-94.9186,-2.0,17.71,11111222 
TABS,ioos:station:wmo:42043:1,2002-12-03T16:00:00Z,28.9818,-94.9186,-2.0,17.69,11111222 
TABS,ioos:station:wmo:42043:1,2002-12-03T16:30:00Z,28.9818,-94.9186,-2.0,17.7,11111222 
TABS,ioos:station:wmo:42043:1,2002-12-03T17:00:00Z,28.9818,-94.9186,-2.0,17.69,11111222 
TABS,ioos:station:wmo:42043:1,2002-12-03T17:30:00Z,28.9818,-94.9186,-2.0,17.67,11111222 
TABS,ioos:station:wmo:42043:1,2002-12-03T18:00:00Z,28.9818,-94.9186,-2.0,17.69,11111222 
TABS,ioos:station:wmo:42043:1,2002-12-03T18:30:00Z,28.9818,-94.9186,-2.0,17.58,11111222 
TABS,ioos:station:wmo:42043:1,2002-12-03T19:00:00Z,28.9818,-94.9186,-2.0,17.63,11111222 
TABS,ioos:station:wmo:42043:1,2002-12-03T19:30:00Z,28.9818,-94.9186,-2.0,17.67,11111222 
TABS,ioos:station:wmo:42043:1,2002-12-03T20:00:00Z,28.9818,-94.9186,-2.0,17.62,11111222 
TABS,ioos:station:wmo:42043:1,2002-12-03T20:30:00Z,28.9818,-94.9186,-2.0,17.68,11111222 
TABS,ioos:station:wmo:42043:1,2002-12-03T21:00:00Z,28.9818,-94.9186,-2.0,17.6,11111222 
TABS,ioos:station:wmo:42043:1,2002-12-03T21:30:00Z,28.9818,-94.9186,-2.0,17.57,11111222 
TABS,ioos:station:wmo:42043:1,2002-12-03T22:00:00Z,28.9818,-94.9186,-2.0,17.62,11111222 
TABS,ioos:station:wmo:42043:1,2002-12-03T22:30:00Z,28.9818,-94.9186,-2.0,17.7,11111222 
TABS,ioos:station:wmo:42043:1,2002-12-03T23:00:00Z,28.9818,-94.9186,-2.0,17.68,11111222 
TABS,ioos:station:wmo:42043:1,2002-12-03T23:30:00Z,28.9818,-94.9186,-2.0,17.7,11111222 
TABS,ioos:station:wmo:42043:1,2002-12-04T00:00:00Z,28.9818,-94.9186,-2.0,17.66,11111222 
TABS,ioos:station:wmo:42043:1,2002-12-04T00:30:00Z,28.9818,-94.9186,-2.0,17.78,11111222 
TABS,ioos:station:wmo:42043:1,2002-12-04T01:00:00Z,28.9818,-94.9186,-2.0,17.75,11111222 
TABS,ioos:station:wmo:42043:1,2002-12-04T01:30:00Z,28.9818,-94.9186,-2.0,17.62,11111222 
TABS,ioos:station:wmo:42043:1,2002-12-04T02:00:00Z,28.9818,-94.9186,-2.0,17.57,11111222 
TABS,ioos:station:wmo:42043:1,2002-12-04T02:30:00Z,28.9818,-94.9186,-2.0,17.54,11111222 
TABS,ioos:station:wmo:42043:1,2002-12-04T03:00:00Z,28.9818,-94.9186,-2.0,17.5,11111222 
TABS,ioos:station:wmo:42043:1,2002-12-04T03:30:00Z,28.9818,-94.9186,-2.0,17.5,11111222 
TABS,ioos:station:wmo:42043:1,2002-12-04T04:00:00Z,28.9818,-94.9186,-2.0,17.48,11111222 
TABS,ioos:station:wmo:42043:1,2002-12-04T04:30:00Z,28.9818,-94.9186,-2.0,17.49,11111222 
TABS,ioos:station:wmo:42043:1,2002-12-04T19:30:00Z,28.9818,-94.9186,-2.0,17.48,11111222 
TABS,ioos:station:wmo:42043:1,2002-12-04T22:00:00Z,28.9818,-94.9186,-2.0,17.46,11111222 
TABS,ioos:station:wmo:42043:1,2002-12-04T22:30:00Z,28.9818,-94.9186,-2.0,17.44,11111222 
TABS,ioos:station:wmo:42043:1,2002-12-04T23:00:00Z,28.9818,-94.9186,-2.0,17.43,11111222 
TABS,ioos:station:wmo:42043:1,2002-12-04T23:30:00Z,28.9818,-94.9186,-2.0,17.41,11111222 
TABS,ioos:station:wmo:42043:1,2002-12-05T00:00:00Z,28.9818,-94.9186,-2.0,17.4,11111222 
TABS,ioos:station:wmo:42043:1,2002-12-05T00:30:00Z,28.9818,-94.9186,-2.0,17.38,11111222 
TABS,ioos:station:wmo:42043:1,2002-12-05T01:00:00Z,28.9818,-94.9186,-2.0,17.4,11111222 
TABS,ioos:station:wmo:42043:1,2002-12-05T01:30:00Z,28.9818,-94.9186,-2.0,17.38,11111222 
TABS,ioos:station:wmo:42043:1,2002-12-05T02:00:00Z,28.9818,-94.9186,-2.0,17.36,11111222 
TABS,ioos:station:wmo:42043:1,2002-12-05T02:30:00Z,28.9818,-94.9186,-2.0,17.36,11111222 
TABS,ioos:station:wmo:42043:1,2002-12-05T03:00:00Z,28.9818,-94.9186,-2.0,17.36,11111222 
TABS,ioos:station:wmo:42043:1,2002-12-05T03:30:00Z,28.9818,-94.9186,-2.0,17.36,11111222 
TABS,ioos:station:wmo:42043:1,2002-12-05T04:00:00Z,28.9818,-94.9186,-2.0,17.35,11111222 
TABS,ioos:station:wmo:42043:1,2002-12-05T04:30:00Z,28.9818,-94.9186,-2.0,17.36,11111222 
TABS,ioos:station:wmo:42043:1,2002-12-05T05:00:00Z,28.9818,-94.9186,-2.0,17.36,11111222 
TABS,ioos:station:wmo:42043:1,2002-12-05T05:30:00Z,28.9818,-94.9186,-2.0,17.35,11111222 
TABS,ioos:station:wmo:42043:1,2002-12-05T06:00:00Z,28.9818,-94.9186,-2.0,17.34,11111222 
TABS,ioos:station:wmo:42043:1,2002-12-05T06:30:00Z,28.9818,-94.9186,-2.0,17.33,11111222 
TABS,ioos:station:wmo:42043:1,2002-12-05T07:00:00Z,28.9818,-94.9186,-2.0,17.3,11111222 
TABS,ioos:station:wmo:42043:1,2002-12-05T07:30:00Z,28.9818,-94.9186,-2.0,17.31,11111222 
TABS,ioos:station:wmo:42043:1,2002-12-05T08:00:00Z,28.9818,-94.9186,-2.0,17.29,11111222 
TABS,ioos:station:wmo:42043:1,2002-12-05T08:30:00Z,28.9818,-94.9186,-2.0,17.29,11111222 
TABS,ioos:station:wmo:42043:1,2002-12-05T09:00:00Z,28.9818,-94.9186,-2.0,17.28,11111222 
TABS,ioos:station:wmo:42043:1,2002-12-05T09:30:00Z,28.9818,-94.9186,-2.0,17.29,11111222 
TABS,ioos:station:wmo:42043:1,2002-12-05T10:00:00Z,28.9818,-94.9186,-2.0,17.27,11111222 
TABS,ioos:station:wmo:42043:1,2002-12-05T10:30:00Z,28.9818,-94.9186,-2.0,17.25,11111222 
TABS,ioos:station:wmo:42043:1,2002-12-05T11:00:00Z,28.9818,-94.9186,-2.0,17.25,11111222 
TABS,ioos:station:wmo:42043:1,2002-12-05T11:30:00Z,28.9818,-94.9186,-2.0,17.23,11111222 
TABS,ioos:station:wmo:42043:1,2002-12-05T12:00:00Z,28.9818,-94.9186,-2.0,17.22,11111222 
TABS,ioos:station:wmo:42043:1,2002-12-05T12:30:00Z,28.9818,-94.9186,-2.0,17.21,11111222 
TABS,ioos:station:wmo:42043:1,2002-12-05T13:00:00Z,28.9818,-94.9186,-2.0,17.18,11111222 
TABS,ioos:station:wmo:42043:1,2002-12-05T13:30:00Z,28.9818,-94.9186,-2.0,17.19,11111222 
TABS,ioos:station:wmo:42043:1,2002-12-05T14:00:00Z,28.9818,-94.9186,-2.0,17.18,11111222 
TABS,ioos:station:wmo:42043:1,2002-12-05T14:30:00Z,28.9818,-94.9186,-2.0,17.16,11111222 
TABS,ioos:station:wmo:42043:1,2002-12-05T15:00:00Z,28.9818,-94.9186,-2.0,17.16,11111222 
TABS,ioos:station:wmo:42043:1,2002-12-05T15:30:00Z,28.9818,-94.9186,-2.0,17.14,11111222 
TABS,ioos:station:wmo:42043:1,2002-12-05T16:00:00Z,28.9818,-94.9186,-2.0,17.14,11111222 
TABS,ioos:station:wmo:42043:1,2002-12-05T16:30:00Z,28.9818,-94.9186,-2.0,17.13,11111222 
TABS,ioos:station:wmo:42043:1,2002-12-05T17:00:00Z,28.9818,-94.9186,-2.0,17.1,11111222 
TABS,ioos:station:wmo:42043:1,2002-12-05T17:30:00Z,28.9818,-94.9186,-2.0,17.09,11111222 
TABS,ioos:station:wmo:42043:1,2002-12-05T18:00:00Z,28.9818,-94.9186,-2.0,17.07,11111222 
TABS,ioos:station:wmo:42043:1,2002-12-05T18:30:00Z,28.9818,-94.9186,-2.0,17.07,11111222 
TABS,ioos:station:wmo:42043:1,2002-12-05T19:00:00Z,28.9818,-94.9186,-2.0,17.05,11111222 
TABS,ioos:station:wmo:42043:1,2002-12-05T19:30:00Z,28.9818,-94.9186,-2.0,17.04,11111222 
TABS,ioos:station:wmo:42043:1,2002-12-05T20:00:00Z,28.9818,-94.9186,-2.0,17.04,11111222 
TABS,ioos:station:wmo:42043:1,2002-12-05T20:30:00Z,28.9818,-94.9186,-2.0,17.01,11111222 
TABS,ioos:station:wmo:42043:1,2002-12-05T21:00:00Z,28.9818,-94.9186,-2.0,17.02,11111222 
TABS,ioos:station:wmo:42043:1,2002-12-05T21:30:00Z,28.9818,-94.9186,-2.0,17.01,11111222 
TABS,ioos:station:wmo:42043:1,2002-12-05T22:00:00Z,28.9818,-94.9186,-2.0,17.01,11111222 
TABS,ioos:station:wmo:42043:1,2002-12-05T22:30:00Z,28.9818,-94.9186,-2.0,16.99,11111222 
TABS,ioos:station:wmo:42043:1,2002-12-05T23:00:00Z,28.9818,-94.9186,-2.0,16.99,11111222 
TABS,ioos:station:wmo:42043:1,2002-12-05T23:30:00Z,28.9818,-94.9186,-2.0,16.98,11111222 
TABS,ioos:station:wmo:42043:1,2002-12-06T00:00:00Z,28.9818,-94.9186,-2.0,16.95,11111222 
TABS,ioos:station:wmo:42043:1,2002-12-06T00:30:00Z,28.9818,-94.9186,-2.0,16.95,11111222 
TABS,ioos:station:wmo:42043:1,2002-12-06T01:00:00Z,28.9818,-94.9186,-2.0,16.93,11111222 
TABS,ioos:station:wmo:42043:1,2002-12-06T01:30:00Z,28.9818,-94.9186,-2.0,16.93,11111222 
TABS,ioos:station:wmo:42043:1,2002-12-06T02:00:00Z,28.9818,-94.9186,-2.0,16.91,11111222 
TABS,ioos:station:wmo:42043:1,2002-12-06T02:30:00Z,28.9818,-94.9186,-2.0,16.9,11111222 
TABS,ioos:station:wmo:42043:1,2002-12-06T03:00:00Z,28.9818,-94.9186,-2.0,16.89,11111222 
TABS,ioos:station:wmo:42043:1,2002-12-06T03:30:00Z,28.9818,-94.9186,-2.0,16.88,11111222 
TABS,ioos:station:wmo:42043:1,2002-12-06T04:00:00Z,28.9818,-94.9186,-2.0,16.86,11111222 
TABS,ioos:station:wmo:42043:1,2002-12-06T04:30:00Z,28.9818,-94.9186,-2.0,16.86,11111222 
TABS,ioos:station:wmo:42043:1,2002-12-06T05:00:00Z,28.9818,-94.9186,-2.0,16.85,11111222 
TABS,ioos:station:wmo:42043:1,2002-12-06T06:30:00Z,28.9818,-94.9186,-2.0,16.83,11111222 
TABS,ioos:station:wmo:42043:1,2002-12-06T07:00:00Z,28.9818,-94.9186,-2.0,16.82,11111222 
TABS,ioos:station:wmo:42043:1,2002-12-06T07:30:00Z,28.9818,-94.9186,-2.0,16.81,11111222 
TABS,ioos:station:wmo:42043:1,2002-12-06T09:30:00Z,28.9818,-94.9186,-2.0,16.74,11111222 
TABS,ioos:station:wmo:42043:1,2002-12-06T10:00:00Z,28.9818,-94.9186,-2.0,16.73,11111222 
TABS,ioos:station:wmo:42043:1,2002-12-06T10:30:00Z,28.9818,-94.9186,-2.0,16.71,11111222 
TABS,ioos:station:wmo:42043:1,2002-12-06T11:00:00Z,28.9818,-94.9186,-2.0,16.67,11111222 
TABS,ioos:station:wmo:42043:1,2002-12-06T12:30:00Z,28.9818,-94.9186,-2.0,16.6,11111222 
TABS,ioos:station:wmo:42043:1,2002-12-06T13:00:00Z,28.9818,-94.9186,-2.0,16.57,11111222 
TABS,ioos:station:wmo:42043:1,2002-12-06T13:30:00Z,28.9818,-94.9186,-2.0,16.55,11111222 
TABS,ioos:station:wmo:42043:1,2002-12-06T14:00:00Z,28.9818,-94.9186,-2.0,16.54,11111222 
TABS,ioos:station:wmo:42043:1,2002-12-06T15:30:00Z,28.9818,-94.9186,-2.0,16.54,11111222 
TABS,ioos:station:wmo:42043:1,2002-12-06T16:00:00Z,28.9818,-94.9186,-2.0,16.56,11111222 
TABS,ioos:station:wmo:42043:1,2002-12-06T16:30:00Z,28.9818,-94.9186,-2.0,16.55,11111222 
TABS,ioos:station:wmo:42043:1,2002-12-06T17:00:00Z,28.9818,-94.9186,-2.0,16.55,11111222 
TABS,ioos:station:wmo:42043:1,2002-12-06T18:30:00Z,28.9818,-94.9186,-2.0,16.43,11111222 
TABS,ioos:station:wmo:42043:1,2002-12-06T19:00:00Z,28.9818,-94.9186,-2.0,16.3,11111222 
TABS,ioos:station:wmo:42043:1,2002-12-06T19:30:00Z,28.9818,-94.9186,-2.0,16.25,11111222 
TABS,ioos:station:wmo:42043:1,2002-12-06T20:00:00Z,28.9818,-94.9186,-2.0,16.3,11111222 
TABS,ioos:station:wmo:42043:1,2002-12-06T21:30:00Z,28.9818,-94.9186,-2.0,16.4,11111222 
TABS,ioos:station:wmo:42043:1,2002-12-06T22:00:00Z,28.9818,-94.9186,-2.0,16.4,11111222 
TABS,ioos:station:wmo:42043:1,2002-12-06T22:30:00Z,28.9818,-94.9186,-2.0,16.36,11111222 
TABS,ioos:station:wmo:42043:1,2002-12-07T00:30:00Z,28.9818,-94.9186,-2.0,16.26,11111222 
TABS,ioos:station:wmo:42043:1,2002-12-07T01:00:00Z,28.9818,-94.9186,-2.0,16.27,11111222 
TABS,ioos:station:wmo:42043:1,2002-12-07T01:30:00Z,28.9818,-94.9186,-2.0,16.25,11111222 
TABS,ioos:station:wmo:42043:1,2002-12-07T02:00:00Z,28.9818,-94.9186,-2.0,16.25,11111222 
TABS,ioos:station:wmo:42043:1,2002-12-07T03:30:00Z,28.9818,-94.9186,-2.0,16.18,11111222 
TABS,ioos:station:wmo:42043:1,2002-12-07T04:00:00Z,28.9818,-94.9186,-2.0,16.17,11111222 
TABS,ioos:station:wmo:42043:1,2002-12-07T04:30:00Z,28.9818,-94.9186,-2.0,16.16,11111222 
TABS,ioos:station:wmo:42043:1,2002-12-07T05:00:00Z,28.9818,-94.9186,-2.0,16.15,11111222 
TABS,ioos:station:wmo:42043:1,2002-12-07T06:30:00Z,28.9818,-94.9186,-2.0,16.16,11111222 
TABS,ioos:station:wmo:42043:1,2002-12-07T07:00:00Z,28.9818,-94.9186,-2.0,16.14,11111222 
TABS,ioos:station:wmo:42043:1,2002-12-07T07:30:00Z,28.9818,-94.9186,-2.0,16.14,11111222 
TABS,ioos:station:wmo:42043:1,2002-12-07T09:30:00Z,28.9818,-94.9186,-2.0,16.07,11111222 
TABS,ioos:station:wmo:42043:1,2002-12-07T10:00:00Z,28.9818,-94.9186,-2.0,16.03,11111222 
TABS,ioos:station:wmo:42043:1,2002-12-07T10:30:00Z,28.9818,-94.9186,-2.0,16.01,11111222 
TABS,ioos:station:wmo:42043:1,2002-12-07T11:00:00Z,28.9818,-94.9186,-2.0,16.03,11111222 
TABS,ioos:station:wmo:42043:1,2002-12-07T12:30:00Z,28.9818,-94.9186,-2.0,16.15,11111222 
TABS,ioos:station:wmo:42043:1,2002-12-07T13:30:00Z,28.9818,-94.9186,-2.0,16.15,11111222 
TABS,ioos:station:wmo:42043:1,2002-12-07T14:00:00Z,28.9818,-94.9186,-2.0,16.13,11111222 
TABS,ioos:station:wmo:42043:1,2002-12-07T18:30:00Z,28.9818,-94.9186,-2.0,16.07,11111222 
TABS,ioos:station:wmo:42043:1,2002-12-07T19:00:00Z,28.9818,-94.9186,-2.0,16.07,11111222 
TABS,ioos:station:wmo:42043:1,2002-12-07T19:30:00Z,28.9818,-94.9186,-2.0,15.99,11111222 
TABS,ioos:station:wmo:42043:1,2002-12-07T20:00:00Z,28.9818,-94.9186,-2.0,15.96,11111222 
TABS,ioos:station:wmo:42043:1,2002-12-07T21:30:00Z,28.9818,-94.9186,-2.0,15.97,11111222 
TABS,ioos:station:wmo:42043:1,2002-12-07T22:00:00Z,28.9818,-94.9186,-2.0,15.98,11111222 
TABS,ioos:station:wmo:42043:1,2002-12-07T22:30:00Z,28.9818,-94.9186,-2.0,15.98,11111222 
TABS,ioos:station:wmo:42043:1,2002-12-07T23:00:00Z,28.9818,-94.9186,-2.0,15.98,11111222 
TABS,ioos:station:wmo:42043:1,2002-12-08T00:30:00Z,28.9818,-94.9186,-2.0,15.98,11111222 
TABS,ioos:station:wmo:42043:1,2002-12-08T01:00:00Z,28.9818,-94.9186,-2.0,15.97,11111222 
TABS,ioos:station:wmo:42043:1,2002-12-08T01:30:00Z,28.9818,-94.9186,-2.0,15.97,11111222 
TABS,ioos:station:wmo:42043:1,2002-12-08T02:00:00Z,28.9818,-94.9186,-2.0,15.94,11111222 
TABS,ioos:station:wmo:42043:1,2002-12-08T07:30:00Z,28.9818,-94.9186,-2.0,15.98,11111222 
TABS,ioos:station:wmo:42043:1,2002-12-08T10:00:00Z,28.9818,-94.9186,-2.0,15.96,11111222 
TABS,ioos:station:wmo:42043:1,2002-12-08T10:30:00Z,28.9818,-94.9186,-2.0,15.93,11111222 
TABS,ioos:station:wmo:42043:1,2002-12-08T12:30:00Z,28.9818,-94.9186,-2.0,15.86,11111222 
TABS,ioos:station:wmo:42043:1,2002-12-08T13:00:00Z,28.9818,-94.9186,-2.0,15.87,11111222 
TABS,ioos:station:wmo:42043:1,2002-12-08T13:30:00Z,28.9818,-94.9186,-2.0,15.87,11111222 
TABS,ioos:station:wmo:42043:1,2002-12-08T14:00:00Z,28.9818,-94.9186,-2.0,15.83,11111222 
TABS,ioos:station:wmo:42043:1,2002-12-08T15:30:00Z,28.9818,-94.9186,-2.0,15.79,11111222 
TABS,ioos:station:wmo:42043:1,2002-12-08T16:00:00Z,28.9818,-94.9186,-2.0,15.81,11111222 
TABS,ioos:station:wmo:42043:1,2002-12-08T16:30:00Z,28.9818,-94.9186,-2.0,15.8,11111222 
TABS,ioos:station:wmo:42043:1,2002-12-08T17:00:00Z,28.9818,-94.9186,-2.0,15.72,11111222 
TABS,ioos:station:wmo:42043:1,2002-12-08T18:30:00Z,28.9818,-94.9186,-2.0,15.6,11111222 
TABS,ioos:station:wmo:42043:1,2002-12-08T19:00:00Z,28.9818,-94.9186,-2.0,15.64,11111222 
TABS,ioos:station:wmo:42043:1,2002-12-08T19:30:00Z,28.9818,-94.9186,-2.0,15.72,11111222 
TABS,ioos:station:wmo:42043:1,2002-12-08T21:30:00Z,28.9818,-94.9186,-2.0,16.84,11111222 
TABS,ioos:station:wmo:42043:1,2002-12-08T22:00:00Z,28.9818,-94.9186,-2.0,16.9,11111222 
TABS,ioos:station:wmo:42043:1,2002-12-08T22:30:00Z,28.9818,-94.9186,-2.0,16.77,11111222 
TABS,ioos:station:wmo:42043:1,2002-12-08T23:00:00Z,28.9818,-94.9186,-2.0,16.8,11111222 
TABS,ioos:station:wmo:42043:1,2002-12-09T00:30:00Z,28.9818,-94.9186,-2.0,16.18,11111222 
TABS,ioos:station:wmo:42043:1,2002-12-09T03:30:00Z,28.9818,-94.9186,-2.0,15.8,11111222 
TABS,ioos:station:wmo:42043:1,2002-12-09T04:00:00Z,28.9818,-94.9186,-2.0,15.82,11111222 
TABS,ioos:station:wmo:42043:1,2002-12-09T04:30:00Z,28.9818,-94.9186,-2.0,15.94,11111222 
TABS,ioos:station:wmo:42043:1,2002-12-09T16:00:00Z,28.9818,-94.9186,-2.0,16.29,11111222 
TABS,ioos:station:wmo:42043:1,2002-12-09T16:30:00Z,28.9818,-94.9186,-2.0,16.29,11111222 
TABS,ioos:station:wmo:42043:1,2002-12-09T17:00:00Z,28.9818,-94.9186,-2.0,16.36,11111222 
TABS,ioos:station:wmo:42043:1,2002-12-09T19:30:00Z,28.9818,-94.9186,-2.0,17.01,11111222 
TABS,ioos:station:wmo:42043:1,2002-12-09T20:00:00Z,28.9818,-94.9186,-2.0,16.96,11111222 
TABS,ioos:station:wmo:42043:1,2002-12-09T23:30:00Z,28.9818,-94.9186,-2.0,16.4,11111222 
TABS,ioos:station:wmo:42043:1,2002-12-10T00:00:00Z,28.9818,-94.9186,-2.0,16.42,11111222 
TABS,ioos:station:wmo:42043:1,2002-12-10T01:00:00Z,28.9818,-94.9186,-2.0,16.37,11111222 
TABS,ioos:station:wmo:42043:1,2002-12-10T01:30:00Z,28.9818,-94.9186,-2.0,16.37,11111222 
TABS,ioos:station:wmo:42043:1,2002-12-10T02:00:00Z,28.9818,-94.9186,-2.0,16.24,11111222 
TABS,ioos:station:wmo:42043:1,2002-12-10T02:30:00Z,28.9818,-94.9186,-2.0,16.17,11111222 
TABS,ioos:station:wmo:42043:1,2002-12-10T03:00:00Z,28.9818,-94.9186,-2.0,16.24,11111222 
TABS,ioos:station:wmo:42043:1,2002-12-10T04:00:00Z,28.9818,-94.9186,-2.0,16.35,11111222 
TABS,ioos:station:wmo:42043:1,2002-12-10T04:30:00Z,28.9818,-94.9186,-2.0,16.48,11111222 